EW6754 Weather Reports


Display with metric or nautical units.
time (UTC)temp
F
wind
direction
speed
MPH
gust
MPH
rain 1hr
in
rain 24hr
in
rain mn
in
humidity
%
barometer
mb
20260905083043 79 191 0.0 0.0 0.00 0.00 0.00 72 1012.3
20260905081544 79 191 0.0 0.0 0.00 0.00 0.00 73 1012.3
20260905080042 79 203 0.0 0.0 0.00 0.00 0.00 73 1012.4
20260905074542 79 172 0.0 0.0 0.00 0.00 0.00 73 1012.2
20260905073040 79 217 0.0 0.0 0.00 0.00 0.00 75 1012.3
20260905071539 79 217 0.0 0.0 0.00 0.00 0.00 75 1012.4
20260905070036 79 217 0.0 0.0 0.00 0.00 0.00 72 1012.5
20260905064538 79 217 0.0 0.0 0.00 0.00 0.00 75 1012.7
20260905063033 79 217 0.0 0.0 0.00 0.00 0.00 75 1012.9
20260905061531 79 241 0.0 0.0 0.00 0.00 0.00 74 1013.0
20260905060033 79 222 0.0 0.0 0.00 0.00 0.00 74 1013.2
20260905054526 79 174 0.0 0.0 0.00 0.00 0.00 75 1013.3
20260905053024 79 217 0.0 0.0 0.00 0.00 0.00 75 1013.5
20260905051533 79 219 0.0 0.0 0.00 0.00 0.00 76 1013.7
20260905050020 80 179 0.0 0.0 0.00 0.00 0.00 77 1013.8
20260905044518 80 187 0.0 0.0 0.00 0.00 0.00 78 1014.0
20260905043018 80 188 0.0 0.0 0.00 0.00 0.00 76 1014.0
20260905041517 80 231 0.0 0.0 0.00 0.00 0.00 76 1014.0
20260905040013 80 173 0.0 0.0 0.00 0.00 0.00 77 1014.1
20260905034521 81 233 0.0 0.0 0.00 0.00 0.00 78 1014.0
20260905033012 81 210 0.0 0.0 0.00 0.00 0.00 79 1014.1
20260905031516 81 226 0.0 0.0 0.00 0.00 0.00 79 1014.2
20260905030022 82 160 0.0 0.0 0.00 0.00 0.00 79 1014.5
20260905024511 82 160 0.0 0.0 0.00 0.00 0.00 79 1014.5
20260905023024 82 179 0.0 0.0 0.00 0.00 0.00 79 1014.7
20260905021511 83 169 0.0 0.0 0.00 0.00 0.00 80 1014.8
20260905020009 83 146 0.0 0.0 0.00 0.00 0.00 80 1014.7
20260905014509 83 169 0.0 0.0 0.00 0.00 0.00 80 1014.7
20260905013008 83 150 0.0 0.0 0.00 0.00 0.00 80 1014.5
20260905011507 83 214 0.0 0.0 0.00 0.00 0.00 80 1014.2
20260905010006 83 152 0.0 0.0 0.00 0.00 0.00 80 1014.1
20260905004507 83 158 0.0 0.0 0.00 0.00 0.00 80 1013.9
20260905003006 84 162 0.0 0.0 0.00 0.00 0.00 80 1013.7
20260905001506 84 191 0.0 0.0 0.00 0.00 0.00 80 1013.4
20260905000007 84 179 0.0 0.0 0.00 0.00 0.00 79 1013.2
20260904234504 84 153 0.0 0.0 0.00 0.00 0.00 79 1013.2
20260904233002 85 173 0.0 0.0 0.00 0.00 0.00 79 1013.1
20260904231558 85 135 0.0 0.0 0.00 0.00 0.00 77 1013.0
20260904230056 86 143 0.0 0.0 0.00 0.00 0.00 75 1012.8
20260904224552 86 139 0.0 0.0 0.00 0.00 0.00 74 1012.8
20260904223050 87 109 0.0 0.0 0.00 0.00 0.00 72 1012.8
20260904221545 88 113 0.0 0.0 0.00 0.00 0.00 71 1012.8
20260904220046 89 126 0.0 0.0 0.00 0.00 0.00 69 1012.8
20260904214547 90 103 0.0 0.0 0.00 0.00 0.00 68 1012.7
20260904213043 90 139 0.0 0.0 0.00 0.00 0.00 66 1012.6
20260904211543 91 126 0.0 5.0 0.00 0.00 0.00 63 1012.6
20260904210046 92 120 0.0 7.0 0.00 0.00 0.00 63 1012.4
20260904204542 92 150 0.0 3.0 0.00 0.00 0.00 62 1012.2
20260904203044 92 158 0.0 0.0 0.00 0.00 0.00 60 1012.1
20260904201539 93 119 0.0 0.0 0.00 0.00 0.00 58 1012.2
20260904200042 93 103 0.0 0.0 0.00 0.00 0.00 58 1012.1
20260904194540 93 111 0.0 0.0 0.00 0.00 0.00 57 1012.1
20260904193044 93 93 0.0 0.0 0.00 0.00 0.00 57 1012.4
20260904191534 93 200 0.0 0.0 0.00 0.00 0.00 56 1012.4
20260904190036 93 188 0.0 0.0 0.00 0.00 0.00 56 1012.4
20260904184533 93 152 0.0 4.0 0.00 0.00 0.00 55 1012.5
20260904183030 93 169 0.0 0.0 0.00 0.00 0.00 54 1012.6
20260904181525 94 168 0.0 0.0 0.00 0.00 0.00 52 1012.9
20260904180019 93 79 0.0 3.0 0.00 0.00 0.00 54 1013.2
20260904174523 93 108 0.0 0.0 0.00 0.00 0.00 56 1013.5
20260904173018 93 162 0.0 0.0 0.00 0.00 0.00 55 1013.6
20260904171514 93 167 0.0 0.0 0.00 0.00 0.00 55 1013.7
20260904170013 92 103 0.0 5.0 0.00 0.00 0.00 55 1014.0
20260904164510 92 102 0.0 7.0 0.00 0.00 0.00 55 1014.1
20260904163010 91 133 0.0 0.0 0.00 0.00 0.00 56 1014.3
20260904161509 91 124 0.0 0.0 0.00 0.00 0.00 57 1014.6
20260904160008 92 120 0.0 0.0 0.00 0.00 0.00 57 1014.7
20260904154506 91 110 0.0 0.0 0.00 0.00 0.00 57 1014.9
20260904153003 91 129 0.0 0.0 0.00 0.00 0.00 60 1015.0
20260904151503 91 140 0.0 0.0 0.00 0.00 0.00 61 1015.1
20260904150002 90 72 0.0 0.0 0.00 0.00 0.00 62 1015.1
20260904144559 90 192 0.0 0.0 0.00 0.00 0.00 66 1015.2
20260904143055 88 152 0.0 0.0 0.00 0.00 0.00 69 1015.4
20260904141611 87 116 0.0 0.0 0.00 0.00 0.00 70 1015.4
20260904140050 87 131 0.0 0.0 0.00 0.00 0.00 69 1015.4
20260904134548 87 120 0.0 0.0 0.00 0.00 0.00 71 1015.2
20260904133045 86 100 0.0 0.0 0.00 0.00 0.00 75 1015.1
20260904131603 85 146 0.0 0.0 0.00 0.00 0.00 77 1015.2
20260904130041 84 98 0.0 0.0 0.00 0.00 0.00 80 1015.2
20260904124543 84 70 0.0 0.0 0.00 0.00 0.00 80 1015.1
20260904123040 83 77 0.0 0.0 0.00 0.00 0.00 80 1015.1
20260904121533 81 214 0.0 0.0 0.00 0.00 0.00 77 1015.0
20260904120027 78 225 0.0 0.0 0.00 0.00 0.00 72 1015.0
20260904114538 78 172 0.0 0.0 0.00 0.00 0.00 79 1014.8
20260904113027 79 117 0.0 0.0 0.00 0.00 0.00 80 1014.7
20260904111524 78 172 0.0 0.0 0.00 0.00 0.00 80 1014.5
20260904110026 76 172 0.0 0.0 0.00 0.00 0.00 75 1014.4
20260904104523 76 172 0.0 0.0 0.00 0.00 0.00 72 1014.4
20260904103022 75 156 0.0 0.0 0.00 0.00 0.00 71 1014.2
20260904101521 75 156 0.0 0.0 0.00 0.00 0.00 71 1014.1
20260904100021 75 156 0.0 0.0 0.00 0.00 0.00 71 1014.0
20260904094519 75 156 0.0 0.0 0.00 0.00 0.00 70 1013.9
20260904093019 75 156 0.0 0.0 0.00 0.00 0.00 70 1013.8
20260904091521 75 155 0.0 0.0 0.00 0.00 0.00 70 1013.6
20260904090023 75 176 0.0 0.0 0.00 0.00 0.00 73 1013.6
20260904084517 75 179 0.0 0.0 0.00 0.00 0.00 73 1013.5